Flag for Switzerland Weather past 2 weeks in Lugano, Switzerland

Now
63 °F

Partly cloudy.


Feels Like: 63 °F
Forecast: 56 / 80 °F
Wind: 3 mph from North

Location: Lugano Airport

Current Time: Aug 28, 2014 at 2:13:38 AM

Latest Report: Aug 28, 2014 at 1:50 AM


Visibility: N/A

Pressure: 29.95 "Hg

Humidity: 77%

Dew point: 55 °F

Location of LuganoLocation

Historic Weather in Lugano — Graph

°F

Lugano temperature yesterday

Maximum temperature yesterday: 84 °F (at 3:20 PM)
Minimum temperature yesterday: 59 °F (at 5:20 AM)
Average temperature yesterday: 69 °F

Past Weeks' High & Low Weather Summary

 TemperatureHumidityPressure
High84 °F (Aug 27, 3:20 PM)100% (Aug 13, 7:20 AM)30.12 "Hg (Aug 13, 7:20 AM)
Low50 °F (Aug 17, 6:50 AM)28% (Aug 14, 5:20 PM)29.68 "Hg (Aug 13, 11:20 AM)
Average65 °F79%29.93 "Hg
* Reported Aug 13 12:20 AM — Aug 28 12:50 AM, Lugano, Weather by CustomWeather, © 2014

Note: Actual official high and low records may vary slightly from our data, if they occured in-between our weather recording intervals... More about our weather records

Advertising

Lugano weather history for previous 24 hours

 ConditionsComfort  
Time TempWeatherWind HumidityBarometerVisibility
12:50 AM
Aug 28
66 °FPassing clouds.7 mph64%29.95 "HgN/A
12:20 AM66 °FPassing clouds.5 mph64%29.92 "HgN/A
11:50 PM
Aug 27
66 °FPassing clouds.7 mph68%29.92 "HgN/A
11:20 PM66 °FPassing clouds.6 mph68%29.92 "HgN/A
10:50 PM66 °FClear.2 mph64%29.92 "Hg10 mi
10:20 PM68 °FClear.5 mph56%29.92 "HgN/A
9:50 PM72 °FClear.6 mph41%29.89 "Hg10 mi
9:20 PM73 °FPassing clouds.7 mph38%29.89 "HgN/A
8:50 PM70 °FSunny.8 mph46%29.86 "Hg10 mi
7:50 PM73 °FPassing clouds.7 mph41%29.86 "HgN/A
7:20 PM73 °FSunny.8 mph41%29.86 "Hg10 mi
6:20 PM81 °FSunny.14 mph30%29.83 "Hg10 mi
4:20 PM82 °FSunny.20 mph32%29.83 "Hg10 mi
3:50 PM82 °FPassing clouds.20 mph35%29.83 "HgN/A
3:20 PM84 °FPassing clouds.15 mph31%29.83 "HgN/A
2:50 PM82 °FPassing clouds.16 mph32%29.83 "HgN/A
2:20 PM82 °FSunny.15 mph32%29.83 "Hg10 mi
1:50 PM82 °FSunny.13 mph35%29.83 "Hg10 mi
1:20 PM77 °FSunny.8 mph57%29.83 "Hg10 mi
12:20 PM75 °FPassing clouds.5 mph65%29.86 "HgN/A
11:50 AM73 °FPassing clouds.5 mph65%29.86 "HgN/A
11:20 AM72 °FSunny.3 mph69%29.86 "Hg10 mi
10:50 AM70 °FPassing clouds.5 mph69%29.86 "HgN/A
10:20 AM68 °FPassing clouds.3 mph78%29.86 "HgN/A
9:50 AM66 °FSunny.1 mph83%29.86 "Hg10 mi
9:20 AM64 °FPassing clouds.2 mph88%29.86 "HgN/A
8:50 AM63 °FPassing clouds.2 mph94%29.86 "HgN/A
8:20 AM61 °FPartly sunny.2 mph94%29.86 "Hg4 mi
7:50 AM61 °FPartly sunny.2 mph94%29.86 "Hg3 mi
7:20 AM59 °FPassing clouds.2 mph100%29.83 "Hg3 mi
6:50 AM59 °FPartly cloudy.1 mph100%29.83 "Hg5 mi
6:20 AM59 °FPartly cloudy.2 mph94%29.83 "Hg5 mi
5:50 AM59 °FPartly cloudy.2 mph100%29.83 "Hg4 mi
5:20 AM59 °FPassing clouds.1 mph100%29.83 "Hg4 mi
4:50 AM61 °FPassing clouds.1 mph94%29.83 "Hg4 mi
4:20 AM61 °FPassing clouds.3 mph94%29.83 "Hg6 mi
3:50 AM63 °FPartly cloudy.2 mph94%29.83 "HgN/A
3:20 AM63 °FPartly cloudy.No wind94%29.83 "Hg4 mi
2:20 AM61 °FPassing clouds.2 mph100%29.83 "Hg6 mi
Weather by CustomWeather, © 2014

See weather overviewHow to use our weather pages